Location: Obersdorf
(47.4079°N, 10.2781°E)
Time: 21:38:24
(UTC+01:00)

AO-109 - Pass Details

Date: 06 December 2021
Orbit: 479 x 515 km, 60.7° (Epoch: 27 January)

Event Time Altitude Azimuth Distance (km) Brightness Sun altitude
Exits shadow 06:36:52 15° 260° (W) 1,358 ? -12.0°
Maximum altitude 06:37:53 17° 240° (WSW) 1,284 ? -11.9°
Drops below altitude 10° 06:40:19 10° 199° (SSW) 1,649 ? -11.5°
Sets 06:43:00 0° 178° (S) 2,525 ? -11.1°
